LDPE-1

Last updated on Tue Jul 08 2025 00:02:48 GMT+0000 (Coordinated Universal Time)

1 49818U 21118B 25188.54881853 -.00000259 00000+0 00000+0 0 9994 2 49818 2.8418 83.1537 0007058 6.9351 318.7942 1.00651493 13171
UTC large
Height (km)
Speed (km/s)
/
Latitude / Longitude
Inclination (degrees)
Orbital Period (minutes)
Azimuth
Elevation
Range (km)
Doppler Factor

Next 0 passes for location: London (51.5072 / 0.1276)

Sorry there are no passes over London.